CZ-4B DEB

Satellite information

Favourite Embed

Satellite Type and Status

DEBRISIN ORBIT

Key statistics

Satellite CZ-4B DEB at a glance.

Uptime

8454

Days in orbit

Revolutions

≈ 14.2

Per day

Orbit

SSO

Sun Synchronous Orbit

Inclination

98.9

Latest

Satellite identification and parameters

Extended collection of information and parameters for CZ-4B DEB.

Object identification

Identified? True

Debris? True

Object name: CZ-4B DEB

International designator: 2002-024K

Object number (NORAD): 35405

Object ID (CCSDS): 35405

Country: PEOPLES REPUBLIC OF CHINA (PRC)

Current information (Y/N): Y

RCS size: SMALL

Orbital parameters

Period: 101.573 minutes

Inclination: 98.9323 deg

SMA: 7211.303 km

Apoapsis: 920.796 km

Periapsis: 745.54 km

RAAN: 227.2043 deg

Eccentricy: 0.0121515

Argument of periapsis: 46.2066 deg

Mean anomaly: 314.9083 deg

Mean motion: 14.17692923 rev/day

Mean motion (dot): 0.00000631 rev/day2

B* drag term: 0.00030848 1/REarth

Two-line elements (TLE)

Creation date: July 5, 2025, 5:45 p.m.

Reference frame: TEME

Reference center: EARTH

Epoch: July 5, 2025, 1:27 p.m. UTC

TLE line 0: 0 CZ-4B DEB

TLE line 1: 1 35405U 02024K 25186.56102499 .00000631 00000-0 30848-3 0 9999

TLE line 2: 2 35405 98.9323 227.2043 0121515 46.2066 314.9083 14.17692923187662

Live tracking on map

Real-time ground track for satellite CZ-4B DEB.

In-orbit conjunctions

A list of the most updated potential collisions computed for object CZ-4B DEB.

Target Orbit TCA Probability of collision Miss distance Type
THOR BURNER 2 R/B SSO 2024-12-09 07:35:17 0.0001622039 140.0 (m) ROCKET BODY
SL-16 DEB LEO 2024-07-12 01:11:10 0.0001136648 264.0 (m) DEBRIS
METEOR 2-20 DEB LEO 2024-06-12 21:39:15 0.000274914 618.0 (m) DEBRIS

Associated space launch

HaiYang abbreviated HY, is a series of marine remote sensing satellites developed and operated by China since 2002. As of June 2020, six satellites were launched and two more are planned. Feng Yun 1D was a polar orbiting meteorological satellite.

CZ-4B DEB was lifted into orbit during the mission ‘Long March 4B | Hai Yang 1 & Feng Yun 1D’, on board a Long March 4B space rocket.

The launch took place on May 15, 2002, 1:50 a.m. from Launch Complex 7.

For more information about the launch, click the button.

Launch to space Long March 4B | Hai Yang 1 & Feng Yun 1D
Long March 4B | Hai Yang 1 & Feng Yun 1D

Agency: N/A

Status: Launch Successful

Launch date: May 15, 2002, 1:50 a.m. UTC

Rocket: Long March 4B

Launch pad: Launch Complex 7

Location: Taiyuan Satellite Launch Center, People's Republic of China

...

Latest news about this satellite

There are no fresh news available about this satellite. Check back as we update our databases every day.


Newsletter sign-up

Weekly statistics, charts and insights to help you stay on top of the space industry.